Home > Weather > Flagstaff > Past weeks

Flag for USA Past Weather in Flagstaff, Arizona, USA — Yesterday and Last 2 Weeks

Now
67 °F

Sunny.


Feels Like: 67 °F
Forecast: 55 / 75 °F
Wind: 5 mph from North

Location: Flagstaff Pulliam Airport

Current Time: Jun 29, 2016 at 6:42:34 PM

Latest Report: Jun 29, 2016 at 5:57 PM


Visibility: 10 mi

Pressure: 30.02 "Hg (23.48 "Hg at 2103m altitude)

Humidity: 49%

Dew Point: 47 °F

Location of FlagstaffLocation

Past Weather in Flagstaff — Graph

°F

Flagstaff Temperature Yesterday

Maximum temperature yesterday: 77 °F (at 8:57 AM)
Minimum temperature yesterday: 55 °F (at 10:57 PM)
Average temperature yesterday: 65 °F

High & Low Weather Summary for the Past Weeks

 TemperatureHumidityPressure
High95 °F (Jun 20, 2:57 PM)93% (Jun 28, 12:57 PM)30.16 "Hg (Jun 28, 12:57 PM)
Low36 °F (Jun 17, 4:57 AM)4% (Jun 18, 12:57 PM)29.85 "Hg (Jun 24, 7:57 PM)
Average68 °F34%29.99 "Hg
* Reported Jun 14 4:57 PM — Jun 29 4:57 PM, Flagstaff, Weather by CustomWeather, © 2016

Note: Actual official high and low records may vary slightly from our data, if they occured in-between our weather recording intervals... More about our weather records

Advertising

Flagstaff Weather History for the Previous 24 Hours

Scroll right to see more
 ConditionsComfort  
Time TempWeatherWind HumidityBarometerVisibility
4:57 PM
Wed, Jun 29
69 °FScattered clouds.9 mph39%30.03 "Hg10 mi
3:57 PM67 °FMore clouds than sun.12 mph49%30.07 "Hg10 mi
2:57 PM65 °FPassing clouds.6 mph61%30.04 "Hg10 mi
1:57 PM65 °FThunderstorms. Scattered clouds.5 mph66%30.05 "Hg10 mi
12:57 PM77 °FThunderstorms. Mostly cloudy.7 mph37%30.00 "Hg10 mi
11:57 AM79 °FScattered clouds.6 mph32%30.04 "Hg10 mi
10:57 AM76 °FSunny.No wind42%30.07 "Hg10 mi
9:57 AM72 °FPassing clouds.7 mph52%30.08 "Hg10 mi
8:57 AM71 °FPassing clouds.6 mph51%30.05 "Hg10 mi
7:57 AM69 °FSunny.6 mph55%30.04 "Hg10 mi
6:57 AM63 °FSunny.3 mph65%30.04 "Hg10 mi
5:57 AM54 °FSunny.No wind77%30.06 "Hg10 mi
4:57 AM52 °FClear.No wind83%30.06 "Hg10 mi
3:57 AM57 °FPassing clouds.No wind67%30.04 "Hg10 mi
2:57 AM58 °FPassing clouds.3 mph65%30.04 "Hg10 mi
1:57 AM62 °FPassing clouds.6 mph54%30.03 "Hg10 mi
12:57 AM61 °FClear.7 mph56%30.06 "Hg10 mi
11:57 PM
Tue, Jun 28
55 °FClear.No wind77%30.11 "Hg10 mi
10:57 PM55 °FClear.No wind77%30.12 "Hg10 mi
9:57 PM60 °FClear.N/A65%30.09 "Hg10 mi
8:57 PM66 °FClear.No wind47%29.99 "Hg10 mi
7:57 PM70 °FClear.8 mph39%29.97 "Hg10 mi
6:57 PM73 °FSunny.15 mph37%29.99 "Hg10 mi
Weather by CustomWeather, © 2016

See weather overviewHow to use our weather pages